Location: C�mpuri de-Sus
(45.9500°N, 22.5500°E)
Time: 06:12:16
(UTC+00:00)

NOSS 3-1 (A) - Pass Details

Date: 24 October 2021
Orbit: 721 x 1491 km, 63.4° (Epoch: 22 November)

Event Time Altitude Azimuth Distance (km) Brightness Sun altitude
Rises 17:49:12 0° 230° (SW) 3,208 6.8 -25.1°
Reaches altitude 10° 17:51:28 10° 235° (SW) 2,342 6.1 -25.5°
Maximum altitude 17:56:45 59° 315° (NW) 997 3.7 -26.4°
Enters shadow 17:59:58 28° 25° (NNE) 1,687 4.6 -26.9°
